CUTE-1 (CO-55) 1 27844U 03031E 26195.01226219 .00000150 00000+0 83592-4 0 9994 2 27844 98.6742 203.2342 0010809 105.7080 254.5292 14.24351102195498 CUBESAT XI-IV (CO-57) 1 27848U 03031J 26194.52222380 .00000129 00000+0 75510-4 0 9995 2 27848 98.6773 202.4416 0010486 123.7879 236.4299 14.23634003195125 CUBESAT XI-V 1 28895U 05043F 26194.96899928 .00000696 00000+0 11722-3 0 9992 2 28895 98.3013 351.1584 0015221 118.8441 241.4296 14.72700573105698 CUTE-1.7+APD II (CO-65) 1 32785U 08021C 26195.16052352 .00003093 00000+0 19607-3 0 9993 2 32785 97.8289 177.1472 0007115 303.6088 56.4461 15.09695039989268 CANX-2 1 32790U 08021H 26194.87027828 .00001884 00000+0 13437-3 0 9997 2 32790 97.8656 175.1723 0008842 323.2603 36.8016 15.05801950988824 SEEDS II (CO-66) 1 32791U 08021J 26194.95931626 .00011026 00000+0 34146-3 0 9996 2 32791 97.7520 194.1541 0002932 158.7607 201.3756 15.33640090991395 SWISSCUBE 1 35932U 09051B 26195.19308272 .00000489 00000+0 10606-3 0 9998 2 35932 98.4009 103.5496 0007816 121.6885 238.5079 14.62529785893109 BEESAT-1 1 35933U 09051C 26194.73748186 .00000394 00000+0 88826-4 0 9995 2 35933 98.3937 102.6657 0006039 133.6539 226.5163 14.61760532893065 ITUPSAT1 1 35935U 09051E 26194.68314044 .00000364 00000+0 85196-4 0 9997 2 35935 98.4020 101.7741 0007976 147.4965 212.6727 14.60477451892607 TISAT 1 1 36799U 10035E 26195.08860619 .00012325 00000+0 39274-3 0 9994 2 36799 98.0712 144.0471 0004417 121.8770 238.2901 15.32704715871822 STRAND-1 1 39090U 13009E 26195.06912199 .00000136 00000+0 59984-4 0 9992 2 39090 98.3933 14.6434 0009358 144.1848 215.9968 14.37178494700921 BRITE-AUSTRIA 1 39091U 13009F 26195.02401074 .00000083 00000+0 42766-4 0 9995 2 39091 98.4007 13.7972 0010697 153.9873 206.1854 14.36552238700901 NEE-01 PEGASO 1 39151U 13018B 26195.19466183 .00001086 00000+0 10814-3 0 9994 2 39151 98.1251 340.2439 0013644 77.3400 282.9343 14.93785831714733 POPACS 2 1 39269U 13055E 26194.20595882 .00013879 -91286-6 22645-3 0 9997 2 39269 80.9920 114.4009 0415091 110.2648 254.3692 14.91964314667091 POPACS 3 1 39270U 13055F 26194.98119529 .00008700 00000+0 20647-3 0 9997 2 39270 80.9985 200.1222 0548933 348.3738 10.5179 14.56640579642450 ZACUBE-1 (TSHEPISOSAT) 1 39417U 13066B 26194.93495080 .00001330 00000+0 10618-3 0 9995 2 39417 97.8009 157.4041 0043958 159.2498 201.0523 15.01325644684741 WNISAT-1 1 39423U 13066H 26194.90632565 .00000631 00000+0 12264-3 0 9992 2 39423 97.7233 342.1704 0163811 147.3521 213.7936 14.58118261670627 TRITON-1 1 39427U 13066M 26195.17244156 .00000990 00000+0 12352-3 0 9997 2 39427 97.8227 104.3636 0090482 145.3973 215.3174 14.81792558678082 GOMX-1 1 39430U 13066Q 26195.14989131 .00000799 00000+0 12654-3 0 9999 2 39430 97.6470 33.9113 0128377 351.5784 8.3268 14.69541528673878 CUBEBUG-2 (LO-74) 1 39440U 13066AA 26194.85564855 .00001982 00000+0 18634-3 0 9998 2 39440 97.8911 143.9522 0055843 299.8965 59.6713 14.93961470680971 NEE-02 KRYSAOR 1 39441U 13066AB 26194.79460108 .00001207 00000+0 13694-3 0 9999 2 39441 97.8897 133.8221 0065556 343.8948 16.0182 14.86735376680155 FUNCUBE-1 (AO-73) 1 39444U 13066AE 26194.96715403 .00003609 00000+0 22382-3 0 9994 2 39444 97.8287 166.9802 0038025 111.5957 248.9329 15.09809112683703 UWE-3 1 39446U 13066AG 26194.81649093 .00001855 00000+0 16225-3 0 9991 2 39446 97.8703 151.0751 0047496 229.2786 130.4306 14.97193233681563 BRITE-CA1 (TORONTO) 1 40020U 14033L 26194.87563814 .00000531 00000+0 87417-4 0 9990 2 40020 97.9770 323.3165 0078341 190.4879 169.4699 14.72721023646145 DUCHIFAT-1 1 40021U 14033M 26195.15102648 .00100682 00000+0 80375-3 0 9990 2 40021 98.0414 258.2325 0002570 244.3653 115.7342 15.70816354659972 NANOSATC-BR1 1 40024U 14033Q 26195.05205308 .00010664 00000+0 34449-3 0 9990 2 40024 98.0712 229.8358 0005327 99.9828 260.2013 15.32305003658092 QB50P1 1 40025U 14033R 26194.57500626 .00005023 00000+0 24591-3 0 9998 2 40025 98.0963 207.5784 0010293 129.5975 230.6167 15.18651217657037 QB50P2 1 40032U 14033Y 26194.97572463 .00003716 00000+0 20003-3 0 9999 2 40032 98.0758 193.5313 0009341 87.2304 272.9995 15.15497026656723 PERSEUS-M2 1 40037U 14033AD 26195.16016870 .00001526 00000+0 14285-3 0 9993 2 40037 97.9973 146.2528 0010733 202.2299 157.8457 14.95590988654817 PERSEUS-M1 1 40039U 14033AF 26194.79647293 .00001289 00000+0 12116-3 0 9999 2 40039 97.9652 139.3677 0010828 201.1513 158.9261 14.95712422654615 POLYITAN-1 1 40042U 14033AJ 26195.06241196 .00011275 00000+0 34297-3 0 9996 2 40042 98.0935 223.8837 0007966 67.7667 292.4418 15.34193995657711 TIGRISAT 1 40043U 14033AK 26194.66030179 .00000798 00000+0 97538-4 0 9995 2 40043 97.7861 344.0710 0048750 349.4137 10.6048 14.85246908649550 AEROCUBE 6A 1 40045U 14033AM 26195.00551644 .00003173 00000+0 26795-3 0 9997 2 40045 97.7241 1.6748 0036407 285.1052 74.6144 14.98336119650635 AEROCUBE 6B 1 40046U 14033AN 26194.98174483 .00002689 00000+0 21916-3 0 9997 2 40046 97.7196 1.4967 0038018 274.3605 85.3274 14.99791886650775 CANX-4 1 40055U 14034C 26195.17167411 .00000456 00000+0 65732-4 0 9998 2 40055 98.3085 71.4711 0011444 286.5619 73.4335 14.81310223648526 CANX-5 1 40056U 14034D 26195.10224440 .00000449 00000+0 64807-4 0 9992 2 40056 98.3087 71.4444 0011445 287.0041 72.9916 14.81327483639321 UKUBE-1 1 40074U 14037F 26195.00558833 .00004376 00000+0 24579-3 0 9994 2 40074 98.4242 201.1037 0003332 90.1501 270.0109 15.13940085652612 BRITE-PL2 (HEWELIUSZ) 1 40119U 14049B 26194.75028223 .00000648 00000+0 65131-4 0 9991 2 40119 97.9120 306.9592 0014480 26.9813 333.2156 14.94684980645411 AEROCUBE 5C 1 40965U 15058B 26195.19209152 .00001741 00000+0 16166-3 0 9990 2 40965 64.7652 178.5702 0132270 52.8081 308.5019 14.91572274369685 AEROCUBE 7 1 40966U 15058C 26195.17765412 .00002824 00000+0 23077-3 0 9997 2 40966 64.7610 160.2633 0121977 51.1415 310.0507 14.95907774369991 FOX-1A (AO-85) 1 40967U 15058D 26195.18138659 .00001712 00000+0 16126-3 0 9998 2 40967 64.7724 195.0853 0132264 46.1915 315.0044 14.91084963117598 SINOD-D 1 1 40968U 15058E 26195.08556168 .00002845 00000+0 23189-3 0 9992 2 40968 64.7733 174.6652 0120966 42.5767 318.4648 14.96081529120681 SNAP-3 ALICE 1 40970U 15058G 26195.10115192 .00099199 00000+0 90315-3 0 9999 2 40970 64.7492 10.4115 0024487 349.0735 10.9879 15.67011491121094 LMRST-SAT 1 40971U 15058H 26195.14362723 .00001598 00000+0 15253-3 0 9992 2 40971 64.7731 191.5923 0133815 48.2110 313.0343 14.90699621117573 SNAP-3 EDDIE 1 40972U 15058J 26194.87838792 .00100523 00000+0 86610-3 0 9999 2 40972 64.7400 1.7103 0025223 351.6214 8.4511 15.68332074123209 PROPCUBE 3 1 40973U 15058K 26195.04579568 .00002363 00000+0 20161-3 0 9995 2 40973 64.7668 168.6087 0125669 49.4374 311.7598 14.94410288118812 BISONSAT 1 40974U 15058L 26195.13586013 .00008955 00000+0 42414-3 0 9997 2 40974 64.7585 86.4661 0081980 36.3271 324.3379 15.16915005119702 SNAP-3 JIMI 1 40975U 15058M 26194.94736551 .00004527 00000+0 31128-3 0 9991 2 40975 64.7645 135.0853 0107762 44.7945 316.1809 15.02598252118243 PROPCUBE 1 (FLORA) 1 40976U 15058N 26195.19047396 .00001252 00000+0 12777-3 0 9993 2 40976 64.7718 211.5379 0132401 50.4745 310.7980 14.89324813120289 SINOD-D 3 1 40977U 15058P 26195.14870378 .00002269 00000+0 19757-3 0 9997 2 40977 64.7700 191.6153 0120959 47.5429 313.5834 14.94168720118780 RAVAN 1 41849U 16067B 26195.18149553 .00039205 00000+0 53513-3 0 9993 2 41849 97.9844 87.9246 0002066 222.6409 137.4685 15.57392674531893 CELTEE 1 1 41850U 16067C 26195.06940424 .00002952 00000+0 14097-3 0 9991 2 41850 98.0638 63.4700 0002320 111.5223 248.6258 15.19934454529967 OPTICUBE 04 1 41851U 16067D 26195.12094669 .00001139 00000+0 74804-4 0 9999 2 41851 98.0674 48.8081 0016242 31.3843 328.8351 15.09769631529239 AEROCUBE 8D 1 41852U 16067E 26195.13076655 .00004455 00000+0 18312-3 0 9991 2 41852 98.0656 67.3560 0004650 61.7187 298.4518 15.24760938530176 AEROCUBE 8C 1 41853U 16067F 26194.62637785 .00004207 00000+0 17185-3 0 9994 2 41853 98.0521 64.0049 0004471 347.6980 12.4146 15.25010493530099 CORVUS BC2 1 42846U 17042X 26194.89821387 .00001369 00000+0 96681-4 0 9998 2 42846 97.4090 355.2157 0013570 27.3909 332.8031 15.06453080491083 CORVUS BC1 1 42847U 17042Y 26195.02271105 .00001058 00000+0 75375-4 0 9994 2 42847 97.4115 356.1666 0011709 4.6005 355.5328 15.06616398491134 MAKERSAT 0 1 43016U 17073D 26194.62405453 .00012247 00000+0 32412-3 0 9993 2 43016 97.4590 77.3600 0105364 177.8429 182.3290 15.32968226470516 SIRION PATHFINDER-2 1 43759U 18099B 26195.06948624 .00002531 00000+0 13986-3 0 9997 2 43759 97.4241 243.4895 0008362 195.5373 164.5604 15.14772649416692 CORVUS BC4 1 43767U 18099K 26195.11270380 .00002273 00000+0 13347-3 0 9993 2 43767 97.4054 237.3058 0006505 265.4491 94.5998 15.12697854416477 M2 PATHFINDER 1 45727U 20037E 26195.04524132 .00000754 00000+0 57894-4 0 9993 2 45727 97.8144 26.5807 0013021 66.0350 294.2237 15.04789604329530 NETSAT-4 1 46504U 20068U 26195.01504022 .00010898 00000+0 23526-3 0 9998 2 46504 97.8600 205.4290 0004593 197.7933 162.3154 15.44730973319911 NETSAT-3 1 46505U 20068V 26194.97672625 .00011134 00000+0 24983-3 0 9990 2 46505 97.8647 203.5719 0003648 216.4788 143.6211 15.43580856319812 NETSAT-1 1 46506U 20068W 26194.99395927 .00007205 00000+0 21328-3 0 9994 2 46506 97.8748 197.5991 0002412 270.6133 89.4833 15.35228312319413 NETSAT-2 1 46507U 20068X 26195.01575639 .00014595 00000+0 28963-3 0 9991 2 46507 97.8610 205.4275 0001997 213.6658 146.4464 15.47129324319883 GREENCUBE (IO-117) 1 53109U 22080E 26193.70867104 -.00000003 00000+0 00000+0 0 9996 2 53109 70.1415 289.3709 0009030 284.1311 75.8345 6.42583319 93700 SITRO-AIS 5 (KATYS) 1 57176U 23091L 26195.15039852 .00007128 00000+0 24734-3 0 9997 2 57176 97.5051 259.3151 0010767 16.1170 344.0411 15.30051115168462 SITRO-AIS 6 (CHIRKIN) 1 57192U 23091AC 26195.19244041 .00005889 00000+0 22862-3 0 9999 2 57192 97.5058 258.3312 0011279 20.1593 340.0088 15.26426658168401 SITRO-AIS 8 (ANOKHIN) 1 57193U 23091AD 26195.18460426 .00008826 00000+0 28038-3 0 9991 2 57193 97.5047 261.0505 0009605 11.8067 348.3398 15.32841449168588 SITRO-AIS 7 (FARTUSHNIY) 1 57194U 23091AE 26195.20122010 .00005651 00000+0 22166-3 0 9998 2 57194 97.5055 258.1508 0011248 21.3083 338.8622 15.26101108168395 SITRO-AIS 10 (BURDAEV) 1 57199U 23091AK 26195.16513336 .00012074 00000+0 30853-3 0 9992 2 57199 97.5075 266.3695 0004961 345.8013 14.3092 15.39604115168916 SITRO-AIS 9 (SHCHUKIN) 1 57201U 23091AM 26195.13531110 .00012877 00000+0 33442-3 0 9991 2 57201 97.5073 266.0472 0005210 346.1181 13.9920 15.39089598168890 SITRO-AIS 12 (SMIRENNIY) 1 57204U 23091AQ 26195.18580260 .00012193 00000+0 31377-3 0 9995 2 57204 97.5086 266.5831 0004752 338.4922 21.6123 15.39386341168929 SITRO-AIS 11 (SHEFFER) 1 57208U 23091AU 26195.19161150 .00012504 00000+0 31711-3 0 9991 2 57208 97.5083 266.8529 0004664 338.0743 22.0302 15.39829206168944 SITRO-AIS 25 1 59066U 24039R 26195.17485531 .00001897 00000+0 14976-3 0 9995 2 59066 95.3893 253.6379 0142705 233.1275 125.6800 14.93639085128755 SITRO-AIS 26 1 59067U 24039S 26195.17994589 .00001899 00000+0 15068-3 0 9999 2 59067 95.3893 253.5334 0143043 233.7313 125.0628 14.93431348128744 SITRO-AIS 27 1 59068U 24039T 26195.20956559 .00001383 00000+0 10948-3 0 9999 2 59068 95.3899 253.8381 0142098 232.1517 126.6783 14.93855813128773 SITRO-AIS 28 1 59071U 24039U 26195.18640875 .00001912 00000+0 15017-3 0 9991 2 59071 95.3896 253.8709 0142012 232.0705 126.7617 14.93889730128774 GRBBETA 1 60237U 24128C 26195.16407140 .00001802 00000+0 13324-3 0 9997 2 60237 61.9897 121.6054 0037194 140.4046 219.9774 15.06804555110338 OOV-CUBE (TUBSAT-30) 1 60240U 24128F 26195.13595913 .00001043 00000+0 91808-4 0 9995 2 60240 61.9937 131.5963 0041269 139.7934 220.6223 15.02871344110166 ROBUSTA-3A (MEDITERRAN*) 1 60243U 24128J 26195.18646720 .00004254 00000+0 25552-3 0 9995 2 60243 61.9865 112.7438 0038197 133.7055 226.7216 15.11978177110500 LASARSAT 1 62391U 24247Q 26193.99643288 .00028123 00000+0 53151-3 0 9993 2 62391 44.9747 117.0092 0006976 149.4103 210.7196 15.47948222 87317 CROCUBE 1 62394U 24247T 26195.05634546 .00026647 00000+0 46684-3 0 9994 2 62394 44.9721 107.9077 0007405 164.6385 195.4732 15.50136188 87513 FORESAIL-1 PRIME 1 66778U 25276DS 26195.14018838 .00002789 00000+0 13680-3 0 9998 2 66778 97.4194 267.9198 0002961 47.0520 313.0963 15.18933286 34499 KNACKSAT-2 1 67683U 98067XZ 26195.17133874 .00035210 00000+0 39407-3 0 9993 2 67683 51.6265 158.5001 0008030 324.3037 35.7419 15.62331997 24494